Date_Time,Julian_Date,Latitude,Longitude,Instrument_Depth,Water_Salinity
(yyyy-mm-dd hh:mn:ss UTC),(JD),(+ deg. North),(+ deg. East),(m),(ppt)
1982-06-14 18:00:00 UTC,2445135.250000,28.7317,-95.2428,0036,0.3420
1982-06-14 18:30:00 UTC,2445135.270833,28.7317,-95.2428,0036,0.3410
1982-06-14 19:00:00 UTC,2445135.291667,28.7317,-95.2428,0036,0.3400
1982-06-14 19:30:00 UTC,2445135.312500,28.7317,-95.2428,0036,0.3400
1982-06-14 20:00:00 UTC,2445135.333333,28.7317,-95.2428,0036,0.3400
1982-06-14 20:30:00 UTC,2445135.354167,28.7317,-95.2428,0036,0.3400
1982-06-14 21:00:00 UTC,2445135.375000,28.7317,-95.2428,0036,0.3400
1982-06-14 21:30:00 UTC,2445135.395833,28.7317,-95.2428,0036,0.3410
1982-06-14 22:00:00 UTC,2445135.416667,28.7317,-95.2428,0036,0.3410
1982-06-14 22:30:00 UTC,2445135.437500,28.7317,-95.2428,0036,0.3410
1982-06-14 23:00:00 UTC,2445135.458333,28.7317,-95.2428,0036,0.3410
1982-06-14 23:30:00 UTC,2445135.479167,28.7317,-95.2428,0036,0.3400
1982-06-15 00:00:00 UTC,2445135.500000,28.7317,-95.2428,0036,0.3400
1982-06-15 00:30:00 UTC,2445135.520833,28.7317,-95.2428,0036,0.3400
1982-06-15 01:00:00 UTC,2445135.541667,28.7317,-95.2428,0036,0.3400
1982-06-15 01:30:00 UTC,2445135.562500,28.7317,-95.2428,0036,0.3390
1982-06-15 02:00:00 UTC,2445135.583333,28.7317,-95.2428,0036,0.3390
1982-06-15 02:30:00 UTC,2445135.604167,28.7317,-95.2428,0036,0.3390
1982-06-15 03:00:00 UTC,2445135.625000,28.7317,-95.2428,0036,0.3380
1982-06-15 03:30:00 UTC,2445135.645833,28.7317,-95.2428,0036,0.3380
1982-06-15 04:00:00 UTC,2445135.666667,28.7317,-95.2428,0036,0.3380
1982-06-15 04:30:00 UTC,2445135.687500,28.7317,-95.2428,0036,0.3390
1982-06-15 05:00:00 UTC,2445135.708333,28.7317,-95.2428,0036,0.3380
1982-06-15 05:30:00 UTC,2445135.729167,28.7317,-95.2428,0036,0.3380
1982-06-15 06:00:00 UTC,2445135.750000,28.7317,-95.2428,0036,0.3370
1982-06-15 06:30:00 UTC,2445135.770833,28.7317,-95.2428,0036,0.3360
1982-06-15 07:00:00 UTC,2445135.791667,28.7317,-95.2428,0036,0.3360
1982-06-15 07:30:00 UTC,2445135.812500,28.7317,-95.2428,0036,0.3360
1982-06-15 08:00:00 UTC,2445135.833333,28.7317,-95.2428,0036,0.3360
1982-06-15 08:30:00 UTC,2445135.854167,28.7317,-95.2428,0036,0.3360
1982-06-15 09:00:00 UTC,2445135.875000,28.7317,-95.2428,0036,0.3360
1982-06-15 09:30:00 UTC,2445135.895833,28.7317,-95.2428,0036,0.3350
1982-06-15 10:00:00 UTC,2445135.916667,28.7317,-95.2428,0036,0.3350
1982-06-15 10:30:00 UTC,2445135.937500,28.7317,-95.2428,0036,0.3350
1982-06-15 11:00:00 UTC,2445135.958333,28.7317,-95.2428,0036,0.3350
1982-06-15 11:30:00 UTC,2445135.979167,28.7317,-95.2428,0036,0.3350
1982-06-15 12:00:00 UTC,2445136.000000,28.7317,-95.2428,0036,0.3350
1982-06-15 12:30:00 UTC,2445136.020833,28.7317,-95.2428,0036,0.3350
1982-06-15 13:00:00 UTC,2445136.041667,28.7317,-95.2428,0036,0.3340
1982-06-15 13:30:00 UTC,2445136.062500,28.7317,-95.2428,0036,0.3330
1982-06-15 14:00:00 UTC,2445136.083333,28.7317,-95.2428,0036,0.3320
1982-06-15 14:30:00 UTC,2445136.104167,28.7317,-95.2428,0036,0.3310
1982-06-15 15:00:00 UTC,2445136.125000,28.7317,-95.2428,0036,0.3310
1982-06-15 15:30:00 UTC,2445136.145833,28.7317,-95.2428,0036,0.3300
1982-06-15 16:00:00 UTC,2445136.166667,28.7317,-95.2428,0036,0.3300
1982-06-15 16:30:00 UTC,2445136.187500,28.7317,-95.2428,0036,0.3290
1982-06-15 17:00:00 UTC,2445136.208333,28.7317,-95.2428,0036,0.3280
1982-06-15 17:30:00 UTC,2445136.229167,28.7317,-95.2428,0036,0.3280
1982-06-15 18:00:00 UTC,2445136.250000,28.7317,-95.2428,0036,0.3270
1982-06-15 18:30:00 UTC,2445136.270833,28.7317,-95.2428,0036,0.3280
1982-06-15 19:00:00 UTC,2445136.291667,28.7317,-95.2428,0036,0.3280
1982-06-15 19:30:00 UTC,2445136.312500,28.7317,-95.2428,0036,0.3280
1982-06-15 20:00:00 UTC,2445136.333333,28.7317,-95.2428,0036,0.3280
1982-06-15 20:30:00 UTC,2445136.354167,28.7317,-95.2428,0036,0.3280
1982-06-15 21:00:00 UTC,2445136.375000,28.7317,-95.2428,0036,0.3290
1982-06-15 21:30:00 UTC,2445136.395833,28.7317,-95.2428,0036,0.3290
1982-06-15 22:00:00 UTC,2445136.416667,28.7317,-95.2428,0036,0.3290
1982-06-15 22:30:00 UTC,2445136.437500,28.7317,-95.2428,0036,0.3300
1982-06-15 23:00:00 UTC,2445136.458333,28.7317,-95.2428,0036,0.3300
1982-06-15 23:30:00 UTC,2445136.479167,28.7317,-95.2428,0036,0.3310
1982-06-16 00:00:00 UTC,2445136.500000,28.7317,-95.2428,0036,0.3310
1982-06-16 00:30:00 UTC,2445136.520833,28.7317,-95.2428,0036,0.3310
1982-06-16 01:00:00 UTC,2445136.541667,28.7317,-95.2428,0036,0.3310
1982-06-16 01:30:00 UTC,2445136.562500,28.7317,-95.2428,0036,0.3310
1982-06-16 02:00:00 UTC,2445136.583333,28.7317,-95.2428,0036,0.3320
1982-06-16 02:30:00 UTC,2445136.604167,28.7317,-95.2428,0036,0.3320
1982-06-16 03:00:00 UTC,2445136.625000,28.7317,-95.2428,0036,0.3320
1982-06-16 03:30:00 UTC,2445136.645833,28.7317,-95.2428,0036,0.3330
1982-06-16 04:00:00 UTC,2445136.666667,28.7317,-95.2428,0036,0.3330
1982-06-16 04:30:00 UTC,2445136.687500,28.7317,-95.2428,0036,0.3330
1982-06-16 05:00:00 UTC,2445136.708333,28.7317,-95.2428,0036,0.3330
1982-06-16 05:30:00 UTC,2445136.729167,28.7317,-95.2428,0036,0.3340
1982-06-16 06:00:00 UTC,2445136.750000,28.7317,-95.2428,0036,0.3340
1982-06-16 06:30:00 UTC,2445136.770833,28.7317,-95.2428,0036,0.3340
1982-06-16 07:00:00 UTC,2445136.791667,28.7317,-95.2428,0036,0.3340
1982-06-16 07:30:00 UTC,2445136.812500,28.7317,-95.2428,0036,0.3340
1982-06-16 08:00:00 UTC,2445136.833333,28.7317,-95.2428,0036,0.3340
1982-06-16 08:30:00 UTC,2445136.854167,28.7317,-95.2428,0036,0.3350
1982-06-16 09:00:00 UTC,2445136.875000,28.7317,-95.2428,0036,0.3350
1982-06-16 09:30:00 UTC,2445136.895833,28.7317,-95.2428,0036,0.3340
1982-06-16 10:00:00 UTC,2445136.916667,28.7317,-95.2428,0036,0.3330
1982-06-16 10:30:00 UTC,2445136.937500,28.7317,-95.2428,0036,0.3330
1982-06-16 11:00:00 UTC,2445136.958333,28.7317,-95.2428,0036,0.3330
1982-06-16 11:30:00 UTC,2445136.979167,28.7317,-95.2428,0036,0.3330
1982-06-16 12:00:00 UTC,2445137.000000,28.7317,-95.2428,0036,0.3330
1982-06-16 12:30:00 UTC,2445137.020833,28.7317,-95.2428,0036,0.3330
1982-06-16 13:00:00 UTC,2445137.041667,28.7317,-95.2428,0036,0.3330
1982-06-16 13:30:00 UTC,2445137.062500,28.7317,-95.2428,0036,0.3340
1982-06-16 14:00:00 UTC,2445137.083333,28.7317,-95.2428,0036,0.3340
1982-06-16 14:30:00 UTC,2445137.104167,28.7317,-95.2428,0036,0.3350
1982-06-16 15:00:00 UTC,2445137.125000,28.7317,-95.2428,0036,0.3350
1982-06-16 15:30:00 UTC,2445137.145833,28.7317,-95.2428,0036,0.3350
1982-06-16 16:00:00 UTC,2445137.166667,28.7317,-95.2428,0036,0.3350
1982-06-16 16:30:00 UTC,2445137.187500,28.7317,-95.2428,0036,0.3350
1982-06-16 17:00:00 UTC,2445137.208333,28.7317,-95.2428,0036,0.3350
1982-06-16 17:30:00 UTC,2445137.229167,28.7317,-95.2428,0036,0.3360
1982-06-16 18:00:00 UTC,2445137.250000,28.7317,-95.2428,0036,0.3360
1982-06-16 18:30:00 UTC,2445137.270833,28.7317,-95.2428,0036,0.3370
1982-06-16 19:00:00 UTC,2445137.291667,28.7317,-95.2428,0036,0.3370
1982-06-16 19:30:00 UTC,2445137.312500,28.7317,-95.2428,0036,0.3370
1982-06-16 20:00:00 UTC,2445137.333333,28.7317,-95.2428,0036,0.3370
1982-06-16 20:30:00 UTC,2445137.354167,28.7317,-95.2428,0036,0.3370
1982-06-16 21:00:00 UTC,2445137.375000,28.7317,-95.2428,0036,0.3370
1982-06-16 21:30:00 UTC,2445137.395833,28.7317,-95.2428,0036,0.3370
1982-06-16 22:00:00 UTC,2445137.416667,28.7317,-95.2428,0036,0.3370
1982-06-16 22:30:00 UTC,2445137.437500,28.7317,-95.2428,0036,0.3380
1982-06-16 23:00:00 UTC,2445137.458333,28.7317,-95.2428,0036,0.3380
1982-06-16 23:30:00 UTC,2445137.479167,28.7317,-95.2428,0036,0.3380
1982-06-17 00:00:00 UTC,2445137.500000,28.7317,-95.2428,0036,0.3380
1982-06-17 00:30:00 UTC,2445137.520833,28.7317,-95.2428,0036,0.3380
1982-06-17 01:00:00 UTC,2445137.541667,28.7317,-95.2428,0036,0.3380
1982-06-17 01:30:00 UTC,2445137.562500,28.7317,-95.2428,0036,0.3380
1982-06-17 02:00:00 UTC,2445137.583333,28.7317,-95.2428,0036,0.3380
1982-06-17 02:30:00 UTC,2445137.604167,28.7317,-95.2428,0036,0.3380
1982-06-17 03:00:00 UTC,2445137.625000,28.7317,-95.2428,0036,0.3380
1982-06-17 03:30:00 UTC,2445137.645833,28.7317,-95.2428,0036,0.3380
1982-06-17 04:00:00 UTC,2445137.666667,28.7317,-95.2428,0036,0.3380
1982-06-17 04:30:00 UTC,2445137.687500,28.7317,-95.2428,0036,0.3380
1982-06-17 05:00:00 UTC,2445137.708333,28.7317,-95.2428,0036,0.3380
1982-06-17 05:30:00 UTC,2445137.729167,28.7317,-95.2428,0036,0.3380
1982-06-17 06:00:00 UTC,2445137.750000,28.7317,-95.2428,0036,0.3380
1982-06-17 06:30:00 UTC,2445137.770833,28.7317,-95.2428,0036,0.3380
1982-06-17 07:00:00 UTC,2445137.791667,28.7317,-95.2428,0036,0.3380
1982-06-17 07:30:00 UTC,2445137.812500,28.7317,-95.2428,0036,0.3390
1982-06-17 08:00:00 UTC,2445137.833333,28.7317,-95.2428,0036,0.3390
1982-06-17 08:30:00 UTC,2445137.854167,28.7317,-95.2428,0036,0.3390
1982-06-17 09:00:00 UTC,2445137.875000,28.7317,-95.2428,0036,0.3400
1982-06-17 09:30:00 UTC,2445137.895833,28.7317,-95.2428,0036,0.3400
1982-06-17 10:00:00 UTC,2445137.916667,28.7317,-95.2428,0036,0.3400
1982-06-17 10:30:00 UTC,2445137.937500,28.7317,-95.2428,0036,0.3400
1982-06-17 11:00:00 UTC,2445137.958333,28.7317,-95.2428,0036,0.3400
1982-06-17 11:30:00 UTC,2445137.979167,28.7317,-95.2428,0036,0.3400
1982-06-17 12:00:00 UTC,2445138.000000,28.7317,-95.2428,0036,0.3400
1982-06-17 12:30:00 UTC,2445138.020833,28.7317,-95.2428,0036,0.3400
1982-06-17 13:00:00 UTC,2445138.041667,28.7317,-95.2428,0036,0.3400
1982-06-17 13:30:00 UTC,2445138.062500,28.7317,-95.2428,0036,0.3400
1982-06-17 14:00:00 UTC,2445138.083333,28.7317,-95.2428,0036,0.3400
1982-06-17 14:30:00 UTC,2445138.104167,28.7317,-95.2428,0036,0.3400
1982-06-17 15:00:00 UTC,2445138.125000,28.7317,-95.2428,0036,0.3400
1982-06-17 15:30:00 UTC,2445138.145833,28.7317,-95.2428,0036,0.3400
1982-06-17 16:00:00 UTC,2445138.166667,28.7317,-95.2428,0036,0.3400
1982-06-17 16:30:00 UTC,2445138.187500,28.7317,-95.2428,0036,0.3400
1982-06-17 17:00:00 UTC,2445138.208333,28.7317,-95.2428,0036,0.3400
1982-06-17 17:30:00 UTC,2445138.229167,28.7317,-95.2428,0036,0.3400
1982-06-17 18:00:00 UTC,2445138.250000,28.7317,-95.2428,0036,0.3400
1982-06-17 18:30:00 UTC,2445138.270833,28.7317,-95.2428,0036,0.3400
1982-06-17 19:00:00 UTC,2445138.291667,28.7317,-95.2428,0036,0.3400
1982-06-17 19:30:00 UTC,2445138.312500,28.7317,-95.2428,0036,0.3400
1982-06-17 20:00:00 UTC,2445138.333333,28.7317,-95.2428,0036,0.3400
1982-06-17 20:30:00 UTC,2445138.354167,28.7317,-95.2428,0036,0.3400
1982-06-17 21:00:00 UTC,2445138.375000,28.7317,-95.2428,0036,0.3400
1982-06-17 21:30:00 UTC,2445138.395833,28.7317,-95.2428,0036,0.3400
1982-06-17 22:00:00 UTC,2445138.416667,28.7317,-95.2428,0036,0.3400
1982-06-17 22:30:00 UTC,2445138.437500,28.7317,-95.2428,0036,0.3400
1982-06-17 23:00:00 UTC,2445138.458333,28.7317,-95.2428,0036,0.3400
1982-06-17 23:30:00 UTC,2445138.479167,28.7317,-95.2428,0036,0.3400
1982-06-18 00:00:00 UTC,2445138.500000,28.7317,-95.2428,0036,0.3410
1982-06-18 00:30:00 UTC,2445138.520833,28.7317,-95.2428,0036,0.3410
1982-06-18 01:00:00 UTC,2445138.541667,28.7317,-95.2428,0036,0.3410
1982-06-18 01:30:00 UTC,2445138.562500,28.7317,-95.2428,0036,0.3400
1982-06-18 02:00:00 UTC,2445138.583333,28.7317,-95.2428,0036,0.3400
1982-06-18 02:30:00 UTC,2445138.604167,28.7317,-95.2428,0036,0.3400
1982-06-18 03:00:00 UTC,2445138.625000,28.7317,-95.2428,0036,0.3400
1982-06-18 03:30:00 UTC,2445138.645833,28.7317,-95.2428,0036,0.3400
1982-06-18 04:00:00 UTC,2445138.666667,28.7317,-95.2428,0036,0.3400
1982-06-18 04:30:00 UTC,2445138.687500,28.7317,-95.2428,0036,0.3400
1982-06-18 05:00:00 UTC,2445138.708333,28.7317,-95.2428,0036,0.3400
1982-06-18 05:30:00 UTC,2445138.729167,28.7317,-95.2428,0036,0.3410
1982-06-18 06:00:00 UTC,2445138.750000,28.7317,-95.2428,0036,0.3410
1982-06-18 06:30:00 UTC,2445138.770833,28.7317,-95.2428,0036,0.3410
1982-06-18 07:00:00 UTC,2445138.791667,28.7317,-95.2428,0036,0.3410
1982-06-18 07:30:00 UTC,2445138.812500,28.7317,-95.2428,0036,0.3410
1982-06-18 08:00:00 UTC,2445138.833333,28.7317,-95.2428,0036,0.3410
1982-06-18 08:30:00 UTC,2445138.854167,28.7317,-95.2428,0036,0.3410
1982-06-18 09:00:00 UTC,2445138.875000,28.7317,-95.2428,0036,0.3420
1982-06-18 09:30:00 UTC,2445138.895833,28.7317,-95.2428,0036,0.3420
1982-06-18 10:00:00 UTC,2445138.916667,28.7317,-95.2428,0036,0.3420
1982-06-18 10:30:00 UTC,2445138.937500,28.7317,-95.2428,0036,0.3420
1982-06-18 11:00:00 UTC,2445138.958333,28.7317,-95.2428,0036,0.3420
1982-06-18 11:30:00 UTC,2445138.979167,28.7317,-95.2428,0036,0.3410
1982-06-18 12:00:00 UTC,2445139.000000,28.7317,-95.2428,0036,0.3410
1982-06-18 12:30:00 UTC,2445139.020833,28.7317,-95.2428,0036,0.3400
1982-06-18 13:00:00 UTC,2445139.041667,28.7317,-95.2428,0036,0.3400
1982-06-18 13:30:00 UTC,2445139.062500,28.7317,-95.2428,0036,0.3400
1982-06-18 14:00:00 UTC,2445139.083333,28.7317,-95.2428,0036,0.3400
1982-06-18 14:30:00 UTC,2445139.104167,28.7317,-95.2428,0036,0.3400
1982-06-18 15:00:00 UTC,2445139.125000,28.7317,-95.2428,0036,0.3400
1982-06-18 15:30:00 UTC,2445139.145833,28.7317,-95.2428,0036,0.3400
1982-06-18 16:00:00 UTC,2445139.166667,28.7317,-95.2428,0036,0.3410
1982-06-18 16:30:00 UTC,2445139.187500,28.7317,-95.2428,0036,0.3410
1982-06-18 17:00:00 UTC,2445139.208333,28.7317,-95.2428,0036,0.3410
1982-06-18 17:30:00 UTC,2445139.229167,28.7317,-95.2428,0036,0.3410
1982-06-18 18:00:00 UTC,2445139.250000,28.7317,-95.2428,0036,0.3410
1982-06-18 18:30:00 UTC,2445139.270833,28.7317,-95.2428,0036,0.3410
1982-06-18 19:00:00 UTC,2445139.291667,28.7317,-95.2428,0036,0.3400
1982-06-18 19:30:00 UTC,2445139.312500,28.7317,-95.2428,0036,0.3400
1982-06-18 20:00:00 UTC,2445139.333333,28.7317,-95.2428,0036,0.3390
1982-06-18 20:30:00 UTC,2445139.354167,28.7317,-95.2428,0036,0.3390
1982-06-18 21:00:00 UTC,2445139.375000,28.7317,-95.2428,0036,0.3390
1982-06-18 21:30:00 UTC,2445139.395833,28.7317,-95.2428,0036,0.3390
1982-06-18 22:00:00 UTC,2445139.416667,28.7317,-95.2428,0036,0.3390
1982-06-18 22:30:00 UTC,2445139.437500,28.7317,-95.2428,0036,0.3390
1982-06-18 23:00:00 UTC,2445139.458333,28.7317,-95.2428,0036,0.3390
1982-06-18 23:30:00 UTC,2445139.479167,28.7317,-95.2428,0036,0.3390
1982-06-19 00:00:00 UTC,2445139.500000,28.7317,-95.2428,0036,0.3390
1982-06-19 00:30:00 UTC,2445139.520833,28.7317,-95.2428,0036,0.3390
1982-06-19 01:00:00 UTC,2445139.541667,28.7317,-95.2428,0036,0.3390
1982-06-19 01:30:00 UTC,2445139.562500,28.7317,-95.2428,0036,0.3390
1982-06-19 02:00:00 UTC,2445139.583333,28.7317,-95.2428,0036,0.3390
1982-06-19 02:30:00 UTC,2445139.604167,28.7317,-95.2428,0036,0.3390
1982-06-19 03:00:00 UTC,2445139.625000,28.7317,-95.2428,0036,0.3400
1982-06-19 03:30:00 UTC,2445139.645833,28.7317,-95.2428,0036,0.3400
1982-06-19 04:00:00 UTC,2445139.666667,28.7317,-95.2428,0036,0.3400
1982-06-19 04:30:00 UTC,2445139.687500,28.7317,-95.2428,0036,0.3400
1982-06-19 05:00:00 UTC,2445139.708333,28.7317,-95.2428,0036,0.3400
1982-06-19 05:30:00 UTC,2445139.729167,28.7317,-95.2428,0036,0.3410
1982-06-19 06:00:00 UTC,2445139.750000,28.7317,-95.2428,0036,0.3410
1982-06-19 06:30:00 UTC,2445139.770833,28.7317,-95.2428,0036,0.3410
1982-06-19 07:00:00 UTC,2445139.791667,28.7317,-95.2428,0036,0.3410
1982-06-19 07:30:00 UTC,2445139.812500,28.7317,-95.2428,0036,0.3400
1982-06-19 08:00:00 UTC,2445139.833333,28.7317,-95.2428,0036,0.3400
1982-06-19 08:30:00 UTC,2445139.854167,28.7317,-95.2428,0036,0.3400
1982-06-19 09:00:00 UTC,2445139.875000,28.7317,-95.2428,0036,0.3400
1982-06-19 09:30:00 UTC,2445139.895833,28.7317,-95.2428,0036,0.3400
1982-06-19 10:00:00 UTC,2445139.916667,28.7317,-95.2428,0036,0.3400
1982-06-19 10:30:00 UTC,2445139.937500,28.7317,-95.2428,0036,0.3400
1982-06-19 11:00:00 UTC,2445139.958333,28.7317,-95.2428,0036,0.3400
1982-06-19 11:30:00 UTC,2445139.979167,28.7317,-95.2428,0036,0.3400
1982-06-19 12:00:00 UTC,2445140.000000,28.7317,-95.2428,0036,0.3400
1982-06-19 12:30:00 UTC,2445140.020833,28.7317,-95.2428,0036,0.3390
1982-06-19 13:00:00 UTC,2445140.041667,28.7317,-95.2428,0036,0.3390
1982-06-19 13:30:00 UTC,2445140.062500,28.7317,-95.2428,0036,0.3390
1982-06-19 14:00:00 UTC,2445140.083333,28.7317,-95.2428,0036,0.3390
1982-06-19 14:30:00 UTC,2445140.104167,28.7317,-95.2428,0036,0.3390
1982-06-19 15:00:00 UTC,2445140.125000,28.7317,-95.2428,0036,0.3390
1982-06-19 15:30:00 UTC,2445140.145833,28.7317,-95.2428,0036,0.3390
1982-06-19 16:00:00 UTC,2445140.166667,28.7317,-95.2428,0036,0.3390
1982-06-19 16:30:00 UTC,2445140.187500,28.7317,-95.2428,0036,0.3390
1982-06-19 17:00:00 UTC,2445140.208333,28.7317,-95.2428,0036,0.3390
1982-06-19 17:30:00 UTC,2445140.229167,28.7317,-95.2428,0036,0.3390
1982-06-19 18:00:00 UTC,2445140.250000,28.7317,-95.2428,0036,0.3390
1982-06-19 18:30:00 UTC,2445140.270833,28.7317,-95.2428,0036,0.3390
1982-06-19 19:00:00 UTC,2445140.291667,28.7317,-95.2428,0036,0.3390
1982-06-19 19:30:00 UTC,2445140.312500,28.7317,-95.2428,0036,0.3390
1982-06-19 20:00:00 UTC,2445140.333333,28.7317,-95.2428,0036,0.3390
1982-06-19 20:30:00 UTC,2445140.354167,28.7317,-95.2428,0036,0.3390
1982-06-19 21:00:00 UTC,2445140.375000,28.7317,-95.2428,0036,0.3390
1982-06-19 21:30:00 UTC,2445140.395833,28.7317,-95.2428,0036,0.3390
1982-06-19 22:00:00 UTC,2445140.416667,28.7317,-95.2428,0036,0.3390
1982-06-19 22:30:00 UTC,2445140.437500,28.7317,-95.2428,0036,0.3390
1982-06-19 23:00:00 UTC,2445140.458333,28.7317,-95.2428,0036,0.3390
1982-06-19 23:30:00 UTC,2445140.479167,28.7317,-95.2428,0036,0.3390
1982-06-20 00:00:00 UTC,2445140.500000,28.7317,-95.2428,0036,0.3390
1982-06-20 00:30:00 UTC,2445140.520833,28.7317,-95.2428,0036,0.3390
1982-06-20 01:00:00 UTC,2445140.541667,28.7317,-95.2428,0036,0.3390
1982-06-20 01:30:00 UTC,2445140.562500,28.7317,-95.2428,0036,0.3390
1982-06-20 02:00:00 UTC,2445140.583333,28.7317,-95.2428,0036,0.3390
1982-06-20 02:30:00 UTC,2445140.604167,28.7317,-95.2428,0036,0.3390
1982-06-20 03:00:00 UTC,2445140.625000,28.7317,-95.2428,0036,0.3390
1982-06-20 03:30:00 UTC,2445140.645833,28.7317,-95.2428,0036,0.3390
1982-06-20 04:00:00 UTC,2445140.666667,28.7317,-95.2428,0036,0.3390
1982-06-20 04:30:00 UTC,2445140.687500,28.7317,-95.2428,0036,0.3390
1982-06-20 05:00:00 UTC,2445140.708333,28.7317,-95.2428,0036,0.3380
1982-06-20 05:30:00 UTC,2445140.729167,28.7317,-95.2428,0036,0.3370
1982-06-20 06:00:00 UTC,2445140.750000,28.7317,-95.2428,0036,0.3370
1982-06-20 06:30:00 UTC,2445140.770833,28.7317,-95.2428,0036,0.3370
1982-06-20 07:00:00 UTC,2445140.791667,28.7317,-95.2428,0036,0.3370
1982-06-20 07:30:00 UTC,2445140.812500,28.7317,-95.2428,0036,0.3370
1982-06-20 08:00:00 UTC,2445140.833333,28.7317,-95.2428,0036,0.3380
1982-06-20 08:30:00 UTC,2445140.854167,28.7317,-95.2428,0036,0.3390
1982-06-20 09:00:00 UTC,2445140.875000,28.7317,-95.2428,0036,0.3390
1982-06-20 09:30:00 UTC,2445140.895833,28.7317,-95.2428,0036,0.3390
1982-06-20 10:00:00 UTC,2445140.916667,28.7317,-95.2428,0036,0.3390
1982-06-20 10:30:00 UTC,2445140.937500,28.7317,-95.2428,0036,0.3390
1982-06-20 11:00:00 UTC,2445140.958333,28.7317,-95.2428,0036,0.3390
1982-06-20 11:30:00 UTC,2445140.979167,28.7317,-95.2428,0036,0.3390
1982-06-20 12:00:00 UTC,2445141.000000,28.7317,-95.2428,0036,0.3390
1982-06-20 12:30:00 UTC,2445141.020833,28.7317,-95.2428,0036,0.3390
1982-06-20 13:00:00 UTC,2445141.041667,28.7317,-95.2428,0036,0.3390
1982-06-20 13:30:00 UTC,2445141.062500,28.7317,-95.2428,0036,0.3390
1982-06-20 14:00:00 UTC,2445141.083333,28.7317,-95.2428,0036,0.3380
1982-06-20 14:30:00 UTC,2445141.104167,28.7317,-95.2428,0036,0.3380
1982-06-20 15:00:00 UTC,2445141.125000,28.7317,-95.2428,0036,0.3380
1982-06-20 15:30:00 UTC,2445141.145833,28.7317,-95.2428,0036,0.3380
1982-06-20 16:00:00 UTC,2445141.166667,28.7317,-95.2428,0036,0.3370
1982-06-20 16:30:00 UTC,2445141.187500,28.7317,-95.2428,0036,0.3370
1982-06-20 17:00:00 UTC,2445141.208333,28.7317,-95.2428,0036,0.3370
1982-06-20 17:30:00 UTC,2445141.229167,28.7317,-95.2428,0036,0.3370
1982-06-20 18:00:00 UTC,2445141.250000,28.7317,-95.2428,0036,0.3370
1982-06-20 18:30:00 UTC,2445141.270833,28.7317,-95.2428,0036,0.3370
1982-06-20 19:00:00 UTC,2445141.291667,28.7317,-95.2428,0036,0.3370
1982-06-20 19:30:00 UTC,2445141.312500,28.7317,-95.2428,0036,0.3370
1982-06-20 20:00:00 UTC,2445141.333333,28.7317,-95.2428,0036,0.3370
1982-06-20 20:30:00 UTC,2445141.354167,28.7317,-95.2428,0036,0.3370
1982-06-20 21:00:00 UTC,2445141.375000,28.7317,-95.2428,0036,0.3370
1982-06-20 21:30:00 UTC,2445141.395833,28.7317,-95.2428,0036,0.3370
1982-06-20 22:00:00 UTC,2445141.416667,28.7317,-95.2428,0036,0.3370
1982-06-20 22:30:00 UTC,2445141.437500,28.7317,-95.2428,0036,0.3370
1982-06-20 23:00:00 UTC,2445141.458333,28.7317,-95.2428,0036,0.3370
1982-06-20 23:30:00 UTC,2445141.479167,28.7317,-95.2428,0036,0.3380
1982-06-21 00:00:00 UTC,2445141.500000,28.7317,-95.2428,0036,0.3380
1982-06-21 00:30:00 UTC,2445141.520833,28.7317,-95.2428,0036,0.3380
1982-06-21 01:00:00 UTC,2445141.541667,28.7317,-95.2428,0036,0.3380
1982-06-21 01:30:00 UTC,2445141.562500,28.7317,-95.2428,0036,0.3380
1982-06-21 02:00:00 UTC,2445141.583333,28.7317,-95.2428,0036,0.3380
1982-06-21 02:30:00 UTC,2445141.604167,28.7317,-95.2428,0036,0.3370
1982-06-21 03:00:00 UTC,2445141.625000,28.7317,-95.2428,0036,0.3370
1982-06-21 03:30:00 UTC,2445141.645833,28.7317,-95.2428,0036,0.3370
1982-06-21 04:00:00 UTC,2445141.666667,28.7317,-95.2428,0036,0.3370
1982-06-21 04:30:00 UTC,2445141.687500,28.7317,-95.2428,0036,0.3370
1982-06-21 05:00:00 UTC,2445141.708333,28.7317,-95.2428,0036,0.3370
1982-06-21 05:30:00 UTC,2445141.729167,28.7317,-95.2428,0036,0.3360
1982-06-21 06:00:00 UTC,2445141.750000,28.7317,-95.2428,0036,0.3350
1982-06-21 06:30:00 UTC,2445141.770833,28.7317,-95.2428,0036,0.3340
1982-06-21 07:00:00 UTC,2445141.791667,28.7317,-95.2428,0036,0.3330
1982-06-21 07:30:00 UTC,2445141.812500,28.7317,-95.2428,0036,0.3330
1982-06-21 08:00:00 UTC,2445141.833333,28.7317,-95.2428,0036,0.3320
1982-06-21 08:30:00 UTC,2445141.854167,28.7317,-95.2428,0036,0.3320
1982-06-21 09:00:00 UTC,2445141.875000,28.7317,-95.2428,0036,0.3320
1982-06-21 09:30:00 UTC,2445141.895833,28.7317,-95.2428,0036,0.3310
1982-06-21 10:00:00 UTC,2445141.916667,28.7317,-95.2428,0036,0.3310
1982-06-21 10:30:00 UTC,2445141.937500,28.7317,-95.2428,0036,0.3300
1982-06-21 11:00:00 UTC,2445141.958333,28.7317,-95.2428,0036,0.3300
1982-06-21 11:30:00 UTC,2445141.979167,28.7317,-95.2428,0036,0.3300
1982-06-21 12:00:00 UTC,2445142.000000,28.7317,-95.2428,0036,0.3300
1982-06-21 12:30:00 UTC,2445142.020833,28.7317,-95.2428,0036,0.3300
1982-06-21 13:00:00 UTC,2445142.041667,28.7317,-95.2428,0036,0.3310
1982-06-21 13:30:00 UTC,2445142.062500,28.7317,-95.2428,0036,0.3320
1982-06-21 14:00:00 UTC,2445142.083333,28.7317,-95.2428,0036,0.3320
1982-06-21 14:30:00 UTC,2445142.104167,28.7317,-95.2428,0036,0.3320
1982-06-21 15:00:00 UTC,2445142.125000,28.7317,-95.2428,0036,0.3320
1982-06-21 15:30:00 UTC,2445142.145833,28.7317,-95.2428,0036,0.3320
1982-06-21 16:00:00 UTC,2445142.166667,28.7317,-95.2428,0036,0.3320
1982-06-21 16:30:00 UTC,2445142.187500,28.7317,-95.2428,0036,0.3320
1982-06-21 17:00:00 UTC,2445142.208333,28.7317,-95.2428,0036,0.3330
1982-06-21 17:30:00 UTC,2445142.229167,28.7317,-95.2428,0036,0.3340
1982-06-21 18:00:00 UTC,2445142.250000,28.7317,-95.2428,0036,0.3350
1982-06-21 18:30:00 UTC,2445142.270833,28.7317,-95.2428,0036,0.3360
1982-06-21 19:00:00 UTC,2445142.291667,28.7317,-95.2428,0036,0.3360
1982-06-21 19:30:00 UTC,2445142.312500,28.7317,-95.2428,0036,0.3370
1982-06-21 20:00:00 UTC,2445142.333333,28.7317,-95.2428,0036,0.3380
1982-06-21 20:30:00 UTC,2445142.354167,28.7317,-95.2428,0036,0.3390
1982-06-21 21:00:00 UTC,2445142.375000,28.7317,-95.2428,0036,0.3370
1982-06-21 21:30:00 UTC,2445142.395833,28.7317,-95.2428,0036,0.3340
1982-06-21 22:00:00 UTC,2445142.416667,28.7317,-95.2428,0036,0.3330
1982-06-21 22:30:00 UTC,2445142.437500,28.7317,-95.2428,0036,0.3320
1982-06-21 23:00:00 UTC,2445142.458333,28.7317,-95.2428,0036,0.3330
1982-06-21 23:30:00 UTC,2445142.479167,28.7317,-95.2428,0036,0.3330
1982-06-22 00:00:00 UTC,2445142.500000,28.7317,-95.2428,0036,0.3340
1982-06-22 00:30:00 UTC,2445142.520833,28.7317,-95.2428,0036,0.3340